Location: Voyageurs National Park
(48.5020°N, 92.9292°W)
Time: 04:20:49
(UTC-06:00)

SMAP - Pass Details

Date: 19 January 2018
Orbit: 681 x 684 km, 98.1° (Epoch: 24 February)

Event Time Altitude Azimuth Distance (km) Brightness Sun altitude
Rises 07:04:53 0° 10° (N) 3,059 6.3 -8.3°
Reaches altitude 10° 07:07:10 10° 6° (N) 2,138 5.5 -8.0°
Maximum altitude 07:11:44 57° 289° (WNW) 808 3.1 -7.3°
Drops below altitude 10° 07:16:17 10° 211° (SSW) 2,120 5.5 -6.6°
Sets 07:18:32 0° 208° (SSW) 3,031 6.4 -6.3°
